Vertical_Velocity
-2 3 -0 2 3 -0 1 -1 0 0 1 1 0 0 -1 -1 0 -0 -0 -1 -0 -1 -2 -1 -3 -2 -1 -1 -1 -1 -2 -2 -1 -2 -3 -1 -1 -1 -1 -1 1 -1 -0
1 -1 -0 2 1 -1 -0 -1 -2 -0 -1 0 0 -0 -1 -0 0 -0 -1 -2 -4 -1 -1 -2 -0 -2 -3 -2 -1 -3 -0 -1 -0 0 -1 -1 -1 -0 -0 -4 -2 -1 -3
1 -1 0 1 2 0 -0 -0 0 1 0 0 1 2 2 -1 -0 1 1 1 0 -2 -0 -1 1 2 -0 -2 -0 -1 -1 -0 -2 -0 1 1 -0 -2 -2 -0 -4 -2 2
0 0 1 4 -1 2 3 2 1 0 1 -0 0 1 1 3 1 -1 -0 2 -0 2 -1 -1 -2 -2 -2 -2 -2 -5 -1 -2 0 -0 -1 -0 0 1 3 0 -1 -1 -3
1 -2 -0 -1 3 0 1 3 2 1 1 -1 -0 0 0 0 3 3 1 1 2 2 1 0 -1 -2 -2 1 -2 -1 0 -2 -1 -0 0 -0 -2 -5 -11 -4 1 -2 -2
1 -0 0 1 4 4 3 2 1 1 2 0 2 -1 0 1 -0 1 4 3 1 1 0 0 2 -0 -1 1 3 1 0 1 0 0 -2 -1 1 -1 -4 -0 3 4 -1
-1 -1 -1 0 4 6 1 2 3 3 2 1 2 1 2 3 1 1 -4 5 1 2 0 1 -0 -1 -1 -3 -1 1 1 -1 2 2 -0 2 1 -0 3 -0 -1 -5 -2
1 3 2 4 2 2 4 5 3 1 1 1 7 0 -4 -5 -3 -7 -0 -2 -2 -0 -0 -2 5 9 8 -3 -4 -2 -0 -1 -1 -1 4 0 7 5 5 0 -0 -3 5
5 6 5 6 5 3 4 3 1 3 2 3 -7 -13 0 -1 -5 -10 1 1 3 2 3 1 1 3 5 3 4 -0 2 -1 -2 2 -1 -3 -3 -11 -6 -0 3 -5 2
3 -2 3 3 -0 5 13 3 6 4 -3 -21 -5 -1 -2 -3 -4 -1 3 -2 -0 6 9 2 -1 2 -1 3 2 -2 -5 -2 -0 2 -3 -2 -6 3 5 -3 7 3 -1
-2 -3 -19 1 2 5 2 12 -1 -13 3 -3 -1 2 1 1 -3 -2 -1 34 1 -2 -2 1 1 -2 0 6 -3 -1 -3 -2 -1 -1 2 -4 3 4 6 -4 -8 8 7
0 1 1 13 12 -8 -5 -0 -9 8 -3 -2 2 1 -1 -1 1 -2 -1 -0 -1 -3 1 1 -1 2 3 7 0 7 1 -2 1 -6 -2 6 -2 1 -2 0 -4 4 1
8 10 -20 -8 9 4 -1 -0 -6 3 -3 -2 0 1 0 1 -0 1 -1 -1 -3 0 0 -2 4 2 -3 -5 3 -4 -3 21 -2 1 -4 3 0 -3 -4 4 1 -2 -1
-5 3 -3 2 4 3 -9 2 3 -3 -1 -0 0 -0 -2 -2 1 0 -2 -0 -2 -1 -5 2 -6 1 2 -6 -10 1 3 -8 9 -2 1 -1 0 6 -3 2 -1 -1 -0
17 5 2 -0 -0 0 -0 -0 -1 1 2 2 0 1 -3 -5 0 -2 -3 -0 -3 -9 -6 0 -3 5 1 -2 1 9 7 5 -7 3 -4 0 -2 0 1 1 -0 3 -0
2 1 1 2 3 5 2 -0 0 4 3 -4 -1 -2 0 -2 1 1 -3 -0 -1 -4 -6 -3 0 -4 -3 -0 -4 -2 -3 9 7 1 8 -7 0 3 1 -3 -3 2 -0
6 5 3 4 3 2 0 -2 -3 -7 -7 -3 -6 -6 -6 3 4 -3 -3 -0 0 -4 -8 -6 1 2 -1 -10 -3 -9 -4 2 -0 1 -2 -1 -3 2 -1 3 2 -1 1
1 2 0 2 -1 3 -2 -4 -6 -2 -8 -7 -3 -0 -2 -2 2 1 1 -2 0 -1 -5 1 -2 -1 1 -1 5 -3 -1 -6 -1 -3 2 -0 -0 0 1 2 2 1 -0
-1 2 -2 1 -0 -5 2 2 -1 -7 0 7 0 6 -2 -4 -2 1 0 -1 -1 -1 -3 -3 -2 -1 -0 0 3 0 -4 1 -0 -0 -1 -0 3 -1 1 1 3 3 3
0 -3 3 3 -3 2 0 5 -6 3 -2 3 -8 5 -6 -5 -0 -2 1 -1 -1 -1 -1 -2 -2 -1 -2 0 -0 3 0 -1 0 -1 4 -0 -0 -1 1 2 5 2 2
-0 1 3 -2 3 1 0 1 -7 -1 -3 4 -10 1 -5 -1 -4 -1 -1 -0 -2 -1 -1 -2 -3 -1 -0 -2 -1 -2 1 2 2 7 7 -1 1 1 -0 1 1 1 3
5 -3 -3 -6 2 -0 8 -12 10 -10 -10 1 2 -4 -1 -1 -2 -1 0 -2 -0 -0 -1 -2 -1 -1 -1 -0 -1 -1 0 -1 -5 6 0 1 1 3 1 2 -0 4 1
4 3 -2 5 8 -2 -9 4 -15 2 -7 6 2 2 -5 -2 -1 -2 -1 -2 -2 -2 -1 -0 1 -0 -0 0 -0 3 1 -0 -1 -0 2 0 -1 1 2 1 2 2 3
-2 4 13 -2 -20 -1 -0 5 -3 -2 1 3 6 -5 1 -4 -2 -0 -3 -3 -2 -1 -1 0 0 -0 1 0 1 2 2 -0 -1 1 1 1 0 2 1 1 1 1 1
-9 -6 -8 4 2 -2 7 -0 1 4 -1 -3 5 -1 -3 -3 -2 -3 -2 -4 -2 -1 -0 0 1 0 0 -0 0 0 2 0 1 2 -1 1 2 1 1 1 0 1 1
1 -1 5 5 6 2 0 4 -5 1 4 -0 -1 -1 -3 -4 -3 1 -4 -2 -2 -3 -0 -1 0 -0 0 2 1 -2 2 2 3 -2 2 1 -1 1 1 0 1 0 1
Height
3189 3192 3195 3198 3200 3202 3204 3206 3207 3208 3209 3209 3209 3209 3209 3209 3209 3209 3208 3207 3206 3205 3205 3203 3201 3199 3197 3196 3194 3192 3191 3189 3188 3187 3186 3185 3182 3181 3179 3177 3175 3172 3170
3188 3192 3195 3198 3200 3202 3203 3205 3206 3207 3208 3208 3208 3208 3208 3208 3208 3208 3207 3207 3206 3205 3203 3202 3200 3198 3196 3195 3193 3192 3189 3188 3187 3185 3184 3183 3181 3179 3178 3176 3174 3171 3169
3187 3191 3195 3198 3200 3201 3203 3204 3205 3206 3206 3207 3207 3207 3207 3206 3205 3205 3205 3204 3204 3203 3202 3200 3199 3197 3195 3194 3192 3191 3188 3186 3184 3183 3182 3181 3179 3178 3176 3175 3173 3171 3169
3184 3188 3193 3195 3198 3200 3201 3203 3203 3204 3205 3205 3205 3205 3204 3204 3203 3203 3203 3202 3201 3201 3200 3198 3197 3196 3194 3193 3190 3188 3186 3184 3183 3181 3180 3179 3178 3176 3175 3173 3172 3171 3170
3183 3187 3190 3193 3195 3197 3199 3200 3201 3202 3202 3202 3202 3202 3201 3200 3200 3200 3200 3199 3199 3198 3197 3196 3195 3192 3191 3191 3188 3186 3184 3182 3181 3178 3176 3175 3174 3173 3172 3172 3170 3169 3168
3180 3183 3187 3190 3192 3195 3196 3198 3198 3198 3198 3199 3198 3198 3197 3197 3196 3196 3197 3195 3194 3194 3194 3193 3192 3190 3188 3187 3185 3183 3181 3179 3177 3176 3174 3172 3171 3170 3169 3168 3167 3167 3167
3176 3180 3184 3187 3189 3191 3192 3193 3193 3193 3193 3194 3195 3194 3194 3193 3191 3190 3190 3191 3190 3190 3189 3189 3188 3186 3184 3183 3183 3181 3178 3176 3174 3172 3171 3170 3169 3167 3166 3165 3164 3165 3164
3171 3176 3180 3182 3185 3187 3187 3187 3188 3188 3189 3190 3191 3191 3189 3188 3185 3184 3185 3184 3185 3185 3184 3184 3183 3182 3179 3178 3178 3178 3176 3174 3171 3169 3167 3166 3165 3165 3163 3162 3161 3162 3161
3169 3172 3175 3177 3179 3180 3182 3183 3183 3184 3185 3187 3187 3187 3183 3180 3179 3179 3179 3179 3178 3178 3179 3177 3177 3176 3175 3174 3173 3172 3170 3169 3167 3163 3162 3162 3161 3160 3160 3159 3157 3157 3158
3163 3166 3169 3171 3173 3176 3176 3177 3179 3178 3178 3180 3178 3178 3176 3175 3172 3170 3172 3172 3173 3171 3171 3170 3170 3169 3168 3166 3166 3165 3166 3164 3163 3161 3160 3159 3157 3155 3153 3153 3154 3153 3153
3156 3160 3164 3167 3169 3170 3169 3167 3171 3171 3173 3174 3172 3172 3171 3168 3167 3166 3165 3165 3165 3165 3165 3163 3162 3161 3161 3160 3158 3158 3159 3159 3157 3155 3155 3153 3152 3150 3149 3147 3148 3149 3148
3151 3155 3159 3161 3161 3164 3165 3161 3165 3167 3168 3168 3168 3166 3165 3164 3162 3162 3160 3159 3159 3159 3157 3157 3156 3155 3154 3154 3154 3155 3153 3153 3152 3151 3150 3148 3147 3146 3145 3142 3142 3142 3143
3143 3149 3152 3154 3156 3158 3160 3161 3161 3162 3162 3162 3162 3161 3160 3159 3157 3156 3155 3154 3154 3155 3155 3151 3150 3150 3149 3149 3148 3148 3147 3147 3146 3145 3143 3143 3142 3139 3138 3138 3137 3137 3137
3139 3142 3147 3149 3151 3153 3154 3155 3156 3156 3156 3156 3156 3155 3155 3155 3154 3152 3151 3150 3148 3148 3149 3149 3146 3146 3144 3142 3142 3143 3142 3141 3138 3140 3137 3138 3136 3133 3132 3132 3132 3132 3133
3136 3138 3141 3144 3146 3146 3146 3148 3149 3150 3150 3150 3151 3150 3150 3149 3150 3147 3146 3145 3142 3141 3141 3142 3141 3140 3139 3137 3136 3135 3135 3135 3133 3133 3133 3131 3130 3129 3126 3125 3125 3126 3127
3134 3135 3137 3139 3140 3141 3141 3143 3143 3144 3144 3144 3144 3143 3143 3143 3143 3142 3141 3140 3139 3136 3132 3134 3133 3133 3132 3131 3129 3129 3128 3128 3127 3126 3126 3125 3124 3122 3120 3120 3120 3121 3122
3128 3129 3132 3134 3135 3136 3135 3137 3137 3139 3139 3139 3139 3138 3138 3137 3136 3135 3135 3133 3132 3130 3127 3126 3126 3125 3124 3123 3123 3122 3122 3121 3119 3119 3119 3117 3117 3116 3114 3114 3115 3116 3118
3123 3125 3128 3128 3130 3130 3130 3131 3132 3133 3134 3133 3132 3131 3130 3130 3128 3127 3126 3125 3124 3121 3119 3117 3116 3115 3115 3114 3114 3114 3114 3114 3113 3112 3111 3111 3109 3108 3108 3108 3109 3111 3113
3117 3121 3123 3124 3123 3124 3126 3125 3125 3126 3128 3126 3125 3123 3122 3123 3121 3119 3118 3116 3114 3113 3111 3109 3107 3106 3106 3105 3105 3106 3105 3104 3104 3104 3104 3103 3102 3102 3101 3101 3104 3106 3107
3112 3115 3116 3117 3117 3119 3120 3119 3120 3120 3119 3119 3117 3115 3114 3114 3113 3111 3110 3108 3106 3104 3102 3100 3099 3098 3097 3098 3097 3097 3097 3096 3097 3096 3096 3095 3094 3094 3094 3096 3098 3100 3102
3108 3109 3111 3111 3113 3113 3114 3115 3113 3113 3111 3112 3110 3109 3108 3106 3104 3103 3101 3099 3097 3095 3093 3091 3090 3089 3088 3088 3089 3089 3088 3087 3087 3088 3087 3088 3087 3087 3088 3091 3093 3096 3097
3102 3104 3105 3105 3105 3107 3106 3108 3106 3106 3106 3105 3103 3101 3100 3097 3095 3093 3091 3089 3087 3084 3082 3081 3080 3080 3079 3079 3078 3079 3079 3078 3079 3080 3079 3080 3080 3079 3083 3085 3088 3089 3092
3097 3098 3099 3098 3099 3101 3100 3101 3101 3099 3099 3098 3094 3093 3091 3088 3086 3084 3081 3079 3076 3073 3072 3071 3070 3070 3069 3070 3069 3070 3071 3071 3070 3070 3072 3073 3073 3075 3078 3080 3082 3083 3087
3090 3092 3094 3092 3093 3095 3094 3094 3093 3092 3090 3089 3086 3084 3082 3080 3077 3075 3072 3070 3066 3063 3061 3060 3060 3060 3061 3061 3061 3061 3062 3062 3063 3064 3065 3066 3068 3070 3073 3075 3077 3079 3081
3083 3087 3088 3087 3086 3088 3086 3085 3085 3084 3082 3080 3076 3075 3074 3071 3069 3067 3064 3060 3057 3053 3052 3050 3051 3052 3052 3052 3053 3054 3054 3055 3056 3058 3059 3060 3063 3066 3068 3070 3072 3074 3077
3076 3080 3082 3081 3080 3080 3080 3078 3076 3076 3073 3071 3069 3066 3065 3064 3061 3059 3055 3051 3048 3045 3043 3043 3043 3043 3043 3044 3045 3047 3046 3048 3049 3052 3054 3057 3059 3061 3064 3066 3068 3070 3072